Houghton, MI

3:31 PM EST on January 19, 2018 (GMT -0500)
Houghton County Memorial

Weather History for KCMX - December, 2012

Change the Weather History Date:

Saturday, December 29, 2012

  Actual Average Record
Temperature  
Mean Temperature 20 °F -  
Max Temperature 25 °F 22 °F 43 °F (2010)
Min Temperature 15 °F 11 °F -15 °F (1976)
Degree Days  
Heating Degree Days 45    
Moisture  
Dew Point 16 °F    
Average Humidity 81    
Maximum Humidity 93    
Minimum Humidity 68    
Precipitation  
Precipitation 0.00 in - - ()
Sea Level Pressure  
Sea Level Pressure 29.98 in    
Wind  
Wind Speed 4 mph (West)    
Max Wind Speed 18 mph    
Max Gust Speed 24 mph    
Visibility 8 miles    
Events Snow    
Averages and records for this station are not official NWS values.
T = Trace of Precipitation, MM = Missing Value Source: NWS Daily Summary

Daily Weather History Graph

Daily Weather History Graph

Search for Another Location

Airport or City:

Trip Planner

Search our weather history database for the weather conditions in past years. The results will help you decide how hot, cold, wet, or windy it might be!

Date:

Astronomy

Dec. 29, 2012 Rise Set
Actual Time 8:40 AM EST 5:12 PM EST
Civil Twilight 8:04 AM EST 5:47 PM EST
Nautical Twilight 7:25 AM EST 6:26 PM EST
Astronomical Twilight 6:48 AM EST 7:04 PM EST
Moon 6:52 PM EST (12/29) 9:07 AM EST (12/29)
Length of Visible Light 9h 43m
Length of Day
8h 32m
Full, 98% of the Moon is Illuminated
Dec 29
Full
Jan 4
Last Quarter
Jan 11
New
Jan 18
First Quarter
Jan 26
Full

Hourly Weather History & Observations

Time (EST) Temp. Windchill Dew Point Humidity Pressure Visibility Wind Dir Wind Speed Gust Speed Precip Events Conditions
12:53 AM 16.0 °F 8.8 °F 14.0 °F 92% 30.02 in 10.0 mi NNE 4.6 mph - N/A   Overcast
1:53 AM 15.1 °F 7.7 °F 12.9 °F 91% 30.01 in 10.0 mi NNE 4.6 mph - N/A   Partly Cloudy
2:53 AM 19.0 °F 13.9 °F 15.1 °F 85% 30.00 in 10.0 mi NNE 3.5 mph - N/A   Scattered Clouds
3:45 AM 19.4 °F 11.5 °F 14.0 °F 80% 29.95 in 10.0 mi ENE 5.8 mph - N/A   Mostly Cloudy
3:53 AM 19.0 °F 13.9 °F 14.0 °F 81% 30.00 in 10.0 mi East 3.5 mph - N/A   Mostly Cloudy
4:53 AM 19.0 °F - 14.0 °F 81% 30.01 in 10.0 mi Calm Calm - N/A   Overcast
5:53 AM 19.9 °F - 15.1 °F 81% 30.00 in 10.0 mi Calm Calm - N/A   Overcast
6:53 AM 21.0 °F - 15.1 °F 78% 29.99 in 10.0 mi Calm Calm - N/A   Overcast
7:53 AM 19.9 °F - 16.0 °F 85% 30.00 in 10.0 mi Calm Calm - N/A   Overcast
8:26 AM 19.4 °F - 15.8 °F 86% 29.94 in 10.0 mi Calm Calm - N/A   Overcast
8:53 AM 19.9 °F - 16.0 °F 85% 30.00 in 8.0 mi Calm Calm - N/A   Overcast
8:59 AM 19.4 °F - 15.8 °F 86% 29.94 in 2.5 mi Calm Calm - 0.00 in Snow Light Snow
9:22 AM 19.4 °F - 17.6 °F 93% 29.94 in 1.5 mi Calm Calm - 0.00 in Snow Light Snow
9:34 AM 19.4 °F - 17.6 °F 93% 29.94 in 3.0 mi Calm Calm - 0.00 in Snow Light Snow
9:53 AM 21.0 °F - 18.0 °F 88% 30.00 in 2.5 mi Calm Calm - 0.00 in Snow Light Snow
10:07 AM 21.2 °F - 17.6 °F 86% 29.94 in 5.0 mi Calm Calm - 0.00 in Snow Light Snow
10:53 AM 21.9 °F 17.2 °F 16.0 °F 78% 30.01 in 10.0 mi East 3.5 mph - 0.00 in   Mostly Cloudy
11:53 AM 23.0 °F - 16.0 °F 74% 29.99 in 10.0 mi Calm Calm - N/A   Overcast
12:01 PM 23.0 °F 15.8 °F 15.8 °F 74% 29.93 in 10.0 mi SE 5.8 mph - N/A   Overcast
12:53 PM 25.0 °F - 16.0 °F 69% 29.98 in 10.0 mi Calm Calm - N/A   Overcast
1:53 PM 24.1 °F - 16.0 °F 71% 29.97 in 10.0 mi Calm Calm - N/A   Overcast
2:43 PM 24.8 °F 19.1 °F 17.6 °F 74% 29.91 in 4.0 mi West 4.6 mph - N/A Snow Light Snow
2:53 PM 24.1 °F 16.0 °F 19.0 °F 81% 29.96 in 4.0 mi West 6.9 mph - 0.00 in Snow Light Snow
3:50 PM 21.2 °F 12.6 °F 17.6 °F 86% 29.91 in 10.0 mi West 6.9 mph - 0.00 in   Scattered Clouds
3:53 PM 21.9 °F 14.5 °F 17.1 °F 82% 29.97 in 10.0 mi West 5.8 mph - 0.00 in   Partly Cloudy
4:43 PM 19.4 °F 12.8 °F 15.8 °F 86% 29.92 in 10.0 mi WNW 4.6 mph - N/A   Mostly Cloudy
4:53 PM 19.0 °F 12.3 °F 15.1 °F 85% 29.99 in 10.0 mi WNW 4.6 mph - N/A   Mostly Cloudy
5:53 PM 23.0 °F 14.7 °F 17.1 °F 78% 29.99 in 10.0 mi West 6.9 mph - N/A   Overcast
6:53 PM 23.0 °F 14.7 °F 14.0 °F 68% 30.00 in 10.0 mi WSW 6.9 mph - N/A   Overcast
7:14 PM 21.2 °F 9.5 °F 14.0 °F 74% 29.95 in 10.0 mi West 11.5 mph - N/A   Overcast
7:53 PM 23.0 °F 15.8 °F 14.0 °F 68% 30.01 in 10.0 mi SW 5.8 mph - N/A   Overcast
8:53 PM 23.0 °F 13.9 °F 15.1 °F 72% 30.01 in 8.0 mi SW 8.1 mph - 0.00 in Snow Light Snow
9:53 PM 21.9 °F 12.5 °F 16.0 °F 78% 30.01 in 8.0 mi SW 8.1 mph - 0.00 in Snow Light Snow
10:53 PM 21.9 °F 11.0 °F 16.0 °F 78% 30.01 in 10.0 mi WSW 10.4 mph - 0.00 in   Overcast
11:29 PM 21.2 °F 8.9 °F 15.8 °F 80% 29.96 in 10.0 mi West 12.7 mph - N/A   Overcast
11:53 PM 21.0 °F 6.2 °F 15.1 °F 78% 30.02 in 9.0 mi West 18.4 mph 24.2 mph 0.00 in Snow Light Snow